Fort Myers, FL

2:09 PM EDT on October 16, 2019 (GMT -0400)
Page

Weather History for KFMY - September, 2019

Change the Weather History Date:

Friday, September 20, 2019

  Actual Average Record
Temperature  
Mean Temperature 80 °F 82 °F  
Max Temperature 88 °F 90 °F 95 °F (1980)
Min Temperature 72 °F 74 °F 65 °F (1910)
Degree Days  
Heating Degree Days 0 0  
Month to date heating degree days 0 0  
Since 1 July heating degree days 0 0  
Cooling Degree Days 15 17  
Month to date cooling degree days 389 356  
Year to date cooling degree days 3310 3080  
Growing Degree Days 30 (Base 50)    
Moisture  
Dew Point 69 °F    
Average Humidity 72    
Maximum Humidity 90    
Minimum Humidity 57    
Precipitation  
Precipitation 0.03 in 0.26 in 2.52 in (1939)
Month to date precipitation 2.86 6.09  
Year to date precipitation 49.08 47.16  
Sea Level Pressure  
Sea Level Pressure 30.02 in    
Wind  
Wind Speed 11 mph (ENE)    
Max Wind Speed 28 mph    
Max Gust Speed 42 mph    
Visibility 9 miles    
Events Rain    
T = Trace of Precipitation, MM = Missing Value Source: NWS Daily Summary

Daily Weather History Graph

Daily Weather History Graph

Search for Another Location

Airport or City:

Astronomy

Sep. 20, 2019 Rise Set
Actual Time 7:15 AM EDT 7:26 PM EDT
Civil Twilight 6:51 AM EDT 7:49 PM EDT
Nautical Twilight 6:24 AM EDT 8:16 PM EDT
Astronomical Twilight 5:57 AM EDT 8:43 PM EDT
Moon 11:47 PM EDT (9/20) 12:47 PM EDT (9/20)
Length of Visible Light 12h 57m
Length of Day
12h 11m
Waning Gibbous, 65% of the Moon is Illuminated
Sep 20
Waning Gibbous
Sep 21
Last Quarter
Sep 28
New
Oct 5
First Quarter
Oct 13
Full

Hourly Weather History & Observations

Time (EDT) Temp. Heat Index Dew Point Humidity Pressure Visibility Wind Dir Wind Speed Gust Speed Precip Events Conditions
12:53 AM 73.0 °F - 66.9 °F 81% 29.99 in 10.0 mi NE 10.4 mph - N/A   Clear
1:53 AM 73.0 °F - 68.0 °F 84% 30.00 in 10.0 mi ENE 9.2 mph - N/A   Clear
2:53 AM 73.0 °F - 68.0 °F 84% 29.98 in 10.0 mi ENE 6.9 mph - N/A   Mostly Cloudy
3:53 AM 73.0 °F - 68.0 °F 84% 29.96 in 10.0 mi ENE 8.1 mph - N/A   Clear
4:53 AM 73.0 °F - 68.0 °F 84% 29.97 in 10.0 mi ENE 8.1 mph - N/A   Clear
5:53 AM 73.0 °F - 68.0 °F 84% 29.98 in 10.0 mi ENE 5.8 mph - N/A   Clear
6:53 AM 72.0 °F - 68.0 °F 87% 30.00 in 10.0 mi NE 6.9 mph - N/A   Clear
7:53 AM 73.0 °F - 69.1 °F 87% 30.01 in 10.0 mi NE 8.1 mph - N/A   Clear
8:53 AM 75.9 °F - 70.0 °F 82% 30.03 in 10.0 mi ENE 8.1 mph - N/A   Clear
9:53 AM 79.0 °F - 70.0 °F 74% 30.04 in 10.0 mi ENE 12.7 mph 19.6 mph N/A   Mostly Cloudy
10:53 AM - - - N/A% 30.05 in - North - - N/A   Unknown
11:22 AM 82.9 °F 87.0 °F 70.0 °F 65% 30.04 in 1.0 mi Calm Calm - N/A   Haze
11:35 AM 84.9 °F 89.4 °F 70.0 °F 61% 30.04 in 0.2 mi North - - N/A   Haze
11:41 AM 86.0 °F 90.7 °F 70.0 °F 59% 30.04 in 3.0 mi North - - N/A   Haze
11:53 AM 86.0 °F 90.7 °F 70.0 °F 59% 30.05 in 10.0 mi ENE 15.0 mph 26.5 mph N/A   Mostly Cloudy
12:53 PM 87.1 °F 91.3 °F 69.1 °F 55% 30.03 in 10.0 mi East 16.1 mph 26.5 mph 0.00 in Rain Light Rain
1:53 PM 87.1 °F 92.8 °F 71.1 °F 59% 30.01 in 10.0 mi ENE 16.1 mph - 0.00 in   Mostly Cloudy
2:53 PM 82.0 °F 87.9 °F 73.9 °F 76% 30.01 in 10.0 mi ENE 6.9 mph - 0.03 in   Mostly Cloudy
3:53 PM 86.0 °F 90.1 °F 69.1 °F 57% 30.01 in 10.0 mi East 15.0 mph 28.8 mph 0.00 in   Scattered Clouds
4:53 PM 82.9 °F 87.0 °F 70.0 °F 65% 30.01 in 10.0 mi ENE 17.3 mph - N/A   Overcast
5:53 PM 82.9 °F 87.0 °F 70.0 °F 65% 30.01 in 10.0 mi ENE 12.7 mph 21.9 mph 0.00 in Rain Light Rain
6:53 PM 81.0 °F 84.1 °F 69.1 °F 67% 30.03 in 10.0 mi ENE 13.8 mph 24.2 mph 0.00 in   Mostly Cloudy
7:53 PM 80.1 °F 82.7 °F 68.0 °F 67% 30.04 in 10.0 mi ENE 11.5 mph - N/A   Clear
8:53 PM 80.1 °F 82.7 °F 68.0 °F 67% 30.05 in 10.0 mi ENE 11.5 mph - N/A   Clear
9:53 PM 78.1 °F - 68.0 °F 71% 30.08 in 10.0 mi ENE 10.4 mph - N/A   Clear
10:53 PM 77.0 °F - 68.0 °F 74% 30.08 in 10.0 mi ENE 11.5 mph - N/A   Clear
11:53 PM 75.9 °F - 68.0 °F 76% 30.08 in 10.0 mi ENE 9.2 mph - N/A   Clear